TimeCDT,TemperatureF,Dew PointF,Humidity,Sea Level PressureIn,VisibilityMPH,Wind Direction,Wind SpeedMPH,Gust SpeedMPH,PrecipitationIn,Events,Conditions,WindDirDegrees,DateUTC
12:15 AM,88.0,61.3,41,29.96,10.0,SE,13.8,-,N/A,,Clear,130,2013-07-14 05:15:00
12:35 AM,87.4,61.7,42,29.95,10.0,SE,15.0,-,N/A,,Clear,130,2013-07-14 05:35:00
12:55 AM,87.1,61.7,42,29.96,10.0,SE,15.0,-,N/A,,Clear,130,2013-07-14 05:55:00
1:15 AM,86.2,61.7,44,29.95,10.0,SE,12.7,-,N/A,,Clear,130,2013-07-14 06:15:00
1:35 AM,86.0,61.7,44,29.95,10.0,SE,11.5,-,N/A,,Clear,140,2013-07-14 06:35:00
1:55 AM,85.1,61.7,45,29.94,10.0,SE,12.7,-,N/A,,Clear,140,2013-07-14 06:55:00
2:15 AM,84.6,61.3,45,29.92,10.0,SSE,11.5,-,N/A,,Clear,160,2013-07-14 07:15:00
2:35 AM,83.8,61.2,46,29.93,10.0,SE,10.4,-,N/A,,Clear,130,2013-07-14 07:35:00
2:55 AM,83.7,61.0,46,29.93,10.0,SE,12.7,-,N/A,,Clear,140,2013-07-14 07:55:00
3:15 AM,82.9,61.2,48,29.93,10.0,SE,11.5,-,N/A,,Clear,140,2013-07-14 08:15:00
3:35 AM,82.9,61.0,47,29.93,10.0,SE,11.5,-,N/A,,Clear,140,2013-07-14 08:35:00
3:55 AM,82.9,61.0,47,29.92,10.0,SE,10.4,-,N/A,,Clear,140,2013-07-14 08:55:00
4:15 AM,82.6,60.8,48,29.93,10.0,SE,10.4,-,N/A,,Clear,140,2013-07-14 09:15:00
4:35 AM,81.5,60.8,49,29.93,10.0,SE,9.2,-,N/A,,Clear,130,2013-07-14 09:35:00
4:55 AM,81.1,60.8,50,29.93,10.0,ESE,9.2,-,N/A,,Clear,120,2013-07-14 09:55:00
5:15 AM,80.8,60.3,49,29.93,10.0,ESE,10.4,-,N/A,,Clear,120,2013-07-14 10:15:00
5:35 AM,80.6,59.7,49,29.94,10.0,ESE,15.0,-,N/A,,Clear,120,2013-07-14 10:35:00
5:55 AM,80.4,59.0,48,29.94,10.0,ESE,17.3,-,N/A,,Clear,120,2013-07-14 10:55:00
6:15 AM,79.3,59.2,50,29.93,10.0,ESE,16.1,-,N/A,,Clear,120,2013-07-14 11:15:00
6:35 AM,79.0,58.6,50,29.93,10.0,SE,16.1,-,N/A,,Clear,130,2013-07-14 11:35:00
6:55 AM,78.8,56.5,46,29.94,10.0,SE,20.7,26.5,N/A,,Clear,130,2013-07-14 11:55:00
7:15 AM,77.9,55.8,46,29.95,10.0,ESE,20.7,25.3,N/A,,Clear,120,2013-07-14 12:15:00
7:35 AM,77.7,55.4,46,29.96,10.0,ESE,23.0,27.6,N/A,,Clear,120,2013-07-14 12:35:00
7:55 AM,77.5,52.7,42,29.96,10.0,SE,23.0,27.6,N/A,,Clear,130,2013-07-14 12:55:00
8:15 AM,78.1,56.1,47,29.97,10.0,SE,20.7,26.5,N/A,,Clear,130,2013-07-14 13:15:00
8:35 AM,77.4,58.5,52,29.99,10.0,ESE,26.5,31.1,N/A,,Clear,120,2013-07-14 13:35:00
8:55 AM,76.5,58.8,54,30.02,10.0,ESE,26.5,32.2,N/A,,Clear,110,2013-07-14 13:55:00
9:15 AM,75.9,58.8,55,30.04,10.0,East,18.4,29.9,N/A,,Clear,100,2013-07-14 14:15:00
9:35 AM,75.6,56.5,51,30.05,10.0,ESE,24.2,28.8,N/A,,Clear,110,2013-07-14 14:35:00
9:55 AM,77.0,55.9,48,30.05,10.0,ESE,27.6,33.4,N/A,,Clear,110,2013-07-14 14:55:00
10:15 AM,77.2,59.4,54,30.04,10.0,ESE,26.5,35.7,N/A,,Clear,120,2013-07-14 15:15:00
10:35 AM,79.0,61.0,54,30.04,10.0,SE,25.3,39.1,N/A,,Clear,130,2013-07-14 15:35:00
10:55 AM,78.8,59.9,52,30.04,10.0,ESE,26.5,36.8,N/A,,Clear,120,2013-07-14 15:55:00
11:15 AM,79.5,59.4,50,30.03,10.0,SE,29.9,36.8,N/A,,Clear,130,2013-07-14 16:15:00
11:35 AM,78.3,58.5,50,30.03,10.0,SE,26.5,32.2,N/A,,Clear,130,2013-07-14 16:35:00
11:55 AM,80.1,58.1,47,30.02,10.0,SE,20.7,31.1,N/A,,Clear,130,2013-07-14 16:55:00
12:15 PM,80.2,56.8,45,30.02,10.0,SE,24.2,29.9,N/A,,Clear,140,2013-07-14 17:15:00
12:35 PM,80.4,56.5,44,30.02,10.0,SE,24.2,-,N/A,,Clear,140,2013-07-14 17:35:00
12:55 PM,79.7,56.8,45,30.03,10.0,SE,20.7,29.9,N/A,,Clear,130,2013-07-14 17:55:00
1:15 PM,79.7,57.2,46,30.02,10.0,SE,23.0,28.8,N/A,,Clear,130,2013-07-14 18:15:00
1:35 PM,80.1,58.1,47,30.03,10.0,ESE,21.9,26.5,N/A,,Clear,120,2013-07-14 18:35:00
1:55 PM,79.5,58.3,48,30.05,10.0,SE,20.7,27.6,N/A,,Clear,130,2013-07-14 18:55:00
2:15 PM,80.2,58.5,47,30.05,10.0,SE,18.4,-,N/A,,Scattered Clouds,130,2013-07-14 19:15:00
2:35 PM,79.5,57.7,47,30.04,10.0,SSE,19.6,26.5,N/A,,Scattered Clouds,150,2013-07-14 19:35:00
2:55 PM,78.8,58.1,49,30.04,10.0,SE,24.2,27.6,N/A,,Clear,130,2013-07-14 19:55:00
3:15 PM,77.2,58.3,52,30.04,10.0,SE,17.3,25.3,N/A,,Clear,140,2013-07-14 20:15:00
3:35 PM,76.5,58.3,53,30.04,10.0,SE,19.6,24.2,N/A,,Clear,130,2013-07-14 20:35:00
3:55 PM,74.8,58.3,56,30.04,10.0,ESE,19.6,-,N/A,,Clear,120,2013-07-14 20:55:00
4:15 PM,73.6,58.5,59,30.05,10.0,ESE,17.3,23.0,N/A,,Mostly Cloudy,120,2013-07-14 21:15:00
4:35 PM,68.9,62.2,79,30.06,5.0,ESE,12.7,-,0.06,Rain,Heavy Rain,110,2013-07-14 21:35:00
4:55 PM,68.4,63.0,83,30.07,10.0,ESE,11.5,-,0.08,Rain,Light Rain,110,2013-07-14 21:55:00
5:15 PM,67.1,62.4,85,30.06,7.0,ESE,9.2,-,0.03,Rain,Light Rain,110,2013-07-14 22:15:00
5:35 PM,66.7,62.6,86,30.04,10.0,SE,8.1,-,0.04,Rain,Rain,140,2013-07-14 22:35:00
5:55 PM,66.6,61.9,85,30.05,10.0,South,3.5,-,0.05,Rain,Light Rain,190,2013-07-14 22:55:00
6:15 PM,66.6,61.9,85,30.06,5.0,Calm,Calm,-,0.02,Rain,Rain,0,2013-07-14 23:15:00
6:35 PM,66.6,62.8,88,30.02,5.0,WSW,12.7,-,0.08,Rain,Rain,240,2013-07-14 23:35:00
6:55 PM,66.2,63.0,89,30.02,7.0,WSW,10.4,-,0.10,Rain,Light Rain,250,2013-07-14 23:55:00
7:15 PM,66.4,63.1,89,30.02,10.0,WSW,8.1,-,0.02,Rain,Rain,250,2013-07-15 00:15:00
7:35 PM,66.2,63.1,90,30.01,10.0,WSW,4.6,-,0.04,Rain,Rain,250,2013-07-15 00:35:00
7:55 PM,66.2,62.6,88,30.04,10.0,North,3.5,-,0.06,Rain,Rain,350,2013-07-15 00:55:00
8:15 PM,66.0,62.1,87,30.04,10.0,ENE,4.6,-,0.01,Rain,Rain,70,2013-07-15 01:15:00
8:35 PM,66.2,62.6,88,30.04,10.0,East,3.5,-,0.01,Rain,Rain,90,2013-07-15 01:35:00
8:55 PM,66.2,62.6,88,30.05,10.0,NE,3.5,-,0.01,Rain,Light Rain,40,2013-07-15 01:55:00
9:15 PM,66.4,61.5,84,30.06,10.0,Calm,Calm,-,N/A,,Overcast,0,2013-07-15 02:15:00
9:35 PM,66.6,61.7,84,30.07,10.0,NW,3.5,-,N/A,,Overcast,320,2013-07-15 02:35:00
9:55 PM,67.1,62.6,85,30.07,10.0,NW,4.6,-,N/A,,Overcast,310,2013-07-15 02:55:00
10:15 PM,66.7,62.6,86,30.08,10.0,North,3.5,-,N/A,,Overcast,350,2013-07-15 03:15:00
10:35 PM,66.6,62.6,87,30.09,7.0,North,4.6,-,N/A,Rain,Light Rain,360,2013-07-15 03:35:00
10:55 PM,66.7,63.0,88,30.09,10.0,NNW,4.6,-,N/A,,Overcast,340,2013-07-15 03:55:00
11:15 PM,66.6,63.3,89,30.10,10.0,North,4.6,-,N/A,,Overcast,360,2013-07-15 04:15:00
11:35 PM,66.6,63.1,89,30.10,10.0,NNW,5.8,-,N/A,,Overcast,340,2013-07-15 04:35:00
11:55 PM,66.6,63.0,88,30.11,10.0,North,4.6,-,N/A,,Overcast,10,2013-07-15 04:55:00